Location: Cedar Brake
(32.2526°N, 97.8459°W)
Time: 20:10:31
(UTC+00:00)

USA 59 Rocket - Pass Details

Date: 22 April 2026
Orbit: 367 x 1663 km, 63.3° (Epoch: 21 May)

Event Time Altitude Azimuth Distance (km) Brightness Sun altitude
Rises 02:26:39 0° 343° (NNW) 2,516 3.9 -16.9°
Reaches altitude 10° 02:28:41 10° 354° (N) 1,760 2.8 -17.3°
Maximum altitude 02:32:14 32° 60° (ENE) 1,079 1.0 -17.9°
Enters shadow 02:33:07 30° 82° (E) 1,184 1.0 -18.1°
